Location: S�tio Afonso Gruber
(26.1760°S, 49.5250°W)
Time: 23:05:20
(UTC+00:00)

Intelsat 5-3 Rocket - Pass Details

Date: 05 October 2020
Orbit: 281 x 6111 km, 23.6° (Epoch: 22 October)

Event Time Altitude Azimuth Distance (km) Brightness Sun altitude
Exits shadow 06:43:09 33° 274° (W) 6,044 7.0 -29.0°
Maximum altitude 07:02:27 63° 337° (NNW) 6,172 7.2 -25.0°
Drops below altitude 10° 07:42:22 10° 51° (NE) 8,605 8.8 -16.4°
Sets 07:48:27 0° 54° (NE) 9,070 9.1 -15.1°
